EW9310 Weather Reports


time (UTC)temp
C
wind
direction
speed
KPH
gust
KPH
rain 1hr
cm
rain 24hr
cm
rain mn
cm
humidity
%
barometer
mb
20260504050513 7 144 0.0 0.0 0.00 0.05 0.00 90 1009.0
20260504045507 7 144 0.0 0.0 0.00 0.05 0.00 90 1009.1
20260504045004 7 144 0.0 0.0 0.00 0.05 0.00 90 1009.1
20260504044525 7 144 0.0 0.0 0.00 0.05 0.00 90 1009.1
20260504044007 7 144 0.0 0.0 0.00 0.05 0.00 90 1009.2
20260504043504 7 144 0.0 0.0 0.00 0.05 0.00 90 1009.2
20260504043013 7 144 0.0 0.0 0.00 0.05 0.00 90 1009.2
20260504042505 7 144 0.0 0.0 0.00 0.05 0.00 90 1009.3
20260504042006 7 144 0.0 0.0 0.00 0.05 0.00 90 1009.3
20260504041518 7 144 0.0 0.0 0.00 0.05 0.00 90 1009.2
20260504041006 7 144 0.0 3.2 0.00 0.05 0.00 90 1009.1
20260504040507 7 144 0.0 3.2 0.00 0.05 0.00 90 1009.2
20260504040037 7 144 0.0 0.0 0.00 0.05 0.00 90 1009.2
20260504035506 7 144 0.0 0.0 0.00 0.05 0.05 90 1009.3
20260504035008 7 144 0.0 0.0 0.00 0.05 0.05 90 1009.3
20260504034507 7 144 0.0 0.0 0.00 0.05 0.05 90 1009.3
20260504034004 7 144 0.0 3.2 0.00 0.05 0.05 90 1009.3
20260504033504 7 144 0.0 3.2 0.00 0.05 0.05 90 1009.3
20260504033019 7 144 0.0 3.2 0.00 0.05 0.05 90 1009.3
20260504032504 7 110 0.0 3.2 0.00 0.05 0.05 90 1009.4
20260504032008 7 9 0.0 3.2 0.00 0.05 0.05 90 1009.6
20260504031520 7 14 0.0 3.2 0.00 0.05 0.05 90 1009.5
20260504031009 7 169 0.0 1.6 0.00 0.05 0.05 89 1009.5
20260504030507 7 169 0.0 0.0 0.00 0.05 0.05 89 1009.5
20260504030009 7 169 0.0 0.0 0.00 0.05 0.05 89 1009.7
20260504025504 7 169 0.0 1.6 0.00 0.05 0.05 89 1009.6
20260504025009 8 169 0.0 1.6 0.00 0.05 0.05 89 1009.5
20260504024513 8 169 0.0 0.0 0.03 0.05 0.05 89 1009.5
20260504024004 8 169 0.0 3.2 0.03 0.05 0.05 88 1009.5
20260504023505 8 169 0.0 3.2 0.03 0.05 0.05 88 1009.5
20260504023029 8 169 0.0 3.2 0.03 0.05 0.05 87 1009.6
20260504022506 8 169 0.0 1.6 0.03 0.05 0.05 87 1009.8
20260504022007 8 169 1.6 1.6 0.05 0.05 0.05 86 1009.9
20260504021529 8 291 0.0 1.6 0.05 0.05 0.05 84 1010.3
20260504021013 8 291 0.0 3.2 0.05 0.05 0.05 84 1010.4
20260504020509 8 291 0.0 3.2 0.05 0.05 0.05 83 1010.5
20260504020006 8 291 0.0 3.2 0.05 0.05 0.05 82 1010.3
20260504015511 8 291 0.0 4.8 0.05 0.05 0.05 80 1010.3
20260504015003 8 308 0.0 4.8 0.05 0.05 0.05 80 1010.2
20260504014527 9 253 1.6 4.8 0.03 0.03 0.03 79 1010.4
20260504014003 9 286 0.0 3.2 0.03 0.03 0.03 79 1010.6
20260504013505 9 236 1.6 3.2 0.03 0.03 0.03 77 1010.7
20260504013019 10 300 0.0 8.0 0.03 0.03 0.03 1010.8
20260504012510 10 206 0.0 8.0 0.03 0.03 0.03 1010.8
20260504012008 10 229 1.6 8.0 0.00 0.00 0.00 71 1010.7
20260504011525 10 287 1.6 11.3 0.00 0.00 0.00 71 1010.4
20260504011007 10 342 3.2 11.3 0.00 0.00 0.00 70 1010.1
20260504010507 10 296 3.2 17.7 0.00 0.00 0.00 70 1010.1
20260504010011 10 244 4.8 17.7 0.00 0.00 0.00 69 1010.0
20260504005502 10 309 1.6 14.5 0.00 0.00 0.00 69 1010.0
20260504005003 10 15 3.2 19.3 0.00 0.00 0.00 65 1010.1
20260504004514 10 322 9.7 19.3 0.00 0.00 0.00 63 1010.1
20260504004006 10 240 3.2 12.9 0.00 0.00 0.00 63 1009.9
20260504003505 11 360 0.0 9.7 0.00 0.00 0.00 61 1009.8
20260504003020 11 360 1.6 14.5 0.00 0.00 0.00 59 1009.8
20260504002507 11 344 4.8 22.5 0.00 0.00 0.00 59 1009.7
20260504002006 11 211 4.8 22.5 0.00 0.00 0.00 59 1009.7
20260504001527 11 284 0.0 3.2 0.00 0.00 0.00 60 1009.6
20260504001007 11 275 0.0 3.2 0.00 0.00 0.00 54 1009.5
20260504000501 11 298 0.0 4.8 0.00 0.00 0.00 55 1009.4
20260504000028 11 313 0.0 6.4 0.00 0.00 0.00 55 1009.1
20260503235503 11 149 3.2 4.8 0.00 0.00 0.00 51 1009.1
20260503235009 11 110 0.0 3.2 0.00 0.00 0.00 53 1009.3
20260503234520 11 110 1.6 3.2 0.00 0.00 0.00 50 1009.1
20260503234006 11 269 0.0 4.8 0.00 0.00 0.00 49 1009.2
20260503233509 11 269 0.0 4.8 0.00 0.00 0.00 49 1009.1
20260503233031 11 261 3.2 4.8 0.00 0.00 0.00 48 1009.1
20260503232510 12 189 1.6 4.8 0.00 0.00 0.00 49 1009.2
20260503232007 12 199 1.6 12.9 0.00 0.00 0.00 49 1009.4
20260503231531 12 26 0.0 12.9 0.00 0.00 0.00 48 1009.5
20260503231009 12 223 3.2 6.4 0.00 0.00 0.00 48 1009.7
20260503230504 12 352 0.0 6.4 0.00 0.00 0.00 47 1010.0
20260503230011 12 304 3.2 8.0 0.00 0.00 0.00 47 1010.1
20260503225507 12 327 3.2 16.1 0.00 0.00 0.00 47 1010.1
20260503225012 12 323 1.6 27.4 0.00 0.00 0.00 46 1009.9
20260503224524 12 295 8.0 27.4 0.00 0.00 0.00 45 1009.9
20260503224007 12 336 3.2 9.7 0.00 0.00 0.00 45 1009.9
20260503223507 12 200 1.6 9.7 0.00 0.00 0.00 44 1009.8
20260503223022 13 326 4.8 9.7 0.00 0.00 0.00 43 1009.8
20260503222509 13 360 1.6 8.0 0.00 0.00 0.00 42 1009.7
20260503222008 13 329 1.6 8.0 0.00 0.00 0.00 43 1009.6
20260503221528 13 319 1.6 3.2 0.00 0.00 0.00 42 1009.6
20260503221003 13 323 1.6 3.2 0.00 0.00 0.00 42 1009.5
20260503220504 13 336 0.0 4.8 0.00 0.00 0.00 42 1009.5
20260503220012 13 293 3.2 4.8 0.00 0.00 0.00 43 1009.5
20260503215506 13 258 1.6 3.2 0.00 0.00 0.00 43 1009.6
20260503215005 13 324 0.0 16.1 0.00 0.00 0.00 42 1009.6
20260503214521 13 298 1.6 16.1 0.00 0.00 0.00 42 1009.6
20260503214007 13 221 8.0 12.9 0.00 0.00 0.00 43 1009.6
20260503213511 13 323 3.2 12.9 0.00 0.00 0.00 42 1009.5
20260503213026 13 277 3.2 12.9 0.00 0.00 0.00 43 1009.6
20260503212510 13 250 1.6 11.3 0.00 0.00 0.00 42 1009.5
20260503212011 12 360 4.8 14.5 0.00 0.00 0.00 42 1009.5
20260503211526 12 194 8.0 14.5 0.00 0.00 0.00 42 1009.6
20260503211002 13 350 3.2 9.7 0.00 0.00 0.00 42 1009.6
20260503210506 12 326 1.6 6.4 0.00 0.00 0.00 44 1009.6
20260503210028 12 259 3.2 9.7 0.00 0.00 0.00 46 1009.7
20260503205510 12 289 4.8 17.7 0.00 0.00 0.00 44 1009.6
20260503205010 12 217 9.7 19.3 0.00 0.00 0.00 44 1009.7
20260503204534 12 350 3.2 19.3 0.00 0.00 0.00 44 1009.7
20260503204012 13 234 3.2 9.7 0.00 0.00 0.00 44 1009.9
20260503203509 13 224 3.2 9.7 0.00 0.00 0.00 43 1009.9
20260503203027 13 324 1.6 8.0 0.00 0.00 0.00 41 1010.0
20260503202509 12 33 3.2 12.9 0.00 0.00 0.00 41 1010.1
20260503202010 13 24 6.4 12.9 0.00 0.00 0.00 38 1010.1
20260503201531 13 290 3.2 9.7 0.00 0.00 0.00 39 1010.1
20260503201004 13 289 4.8 12.9 0.00 0.00 0.00 36 1010.2
20260503200507 13 344 6.4 12.9 0.00 0.00 0.00 36 1010.2
20260503200022 13 286 4.8 12.9 0.00 0.00 0.00 34 1010.2
20260503195506 13 199 3.2 17.7 0.00 0.00 0.00 38 1010.5
20260503195009 12 304 4.8 17.7 0.00 0.00 0.00 39 1010.6
20260503194533 12 336 3.2 8.0 0.00 0.00 0.00 39 1010.6
20260503194010 12 322 3.2 16.1 0.00 0.00 0.00 39 1010.6
20260503193510 12 33 4.8 16.1 0.00 0.00 0.00 38 1010.7
20260503193038 12 352 3.2 12.9 0.00 0.00 0.00 37 1010.7
20260503192509 12 336 3.2 12.9 0.00 0.00 0.00 38 1010.7
20260503192010 12 310 4.8 14.5 0.00 0.00 0.00 40 1010.7
20260503191523 12 349 6.4 14.5 0.00 0.00 0.00 38 1010.6
20260503191004 12 350 3.2 11.3 0.00 0.00 0.00 36 1010.7
20260503190506 12 303 3.2 12.9 0.00 0.00 0.00 39 1010.7
20260503190031 12 301 3.2 12.9 0.00 0.00 0.00 36 1010.7
20260503185510 12 17 1.6 8.0 0.00 0.00 0.00 37 1010.7
20260503185008 12 336 1.6 12.9 0.00 0.00 0.00 36 1010.7
20260503184528 12 328 3.2 12.9 0.00 0.00 0.00 37 1010.8
20260503184011 12 360 4.8 12.9 0.00 0.00 0.00 34 1010.7
20260503183511 12 252 4.8 11.3 0.00 0.00 0.00 34 1010.8
20260503183026 12 315 3.2 16.1 0.00 0.00 0.00 36 1010.8
20260503182507 12 181 8.0 20.9 0.00 0.00 0.00 38 1010.9
20260503182010 12 250 9.7 20.9 0.00 0.00 0.00 38 1011.0
20260503181517 12 202 3.2 8.0 0.00 0.00 0.00 35 1011.1
20260503181008 12 225 1.6 17.7 0.00 0.00 0.00 34 1011.1
20260503180507 12 315 4.8 17.7 0.00 0.00 0.00 35 1011.2
20260503180030 12 213 3.2 22.5 0.00 0.00 0.00 35 1011.3
20260503175506 12 260 9.7 22.5 0.00 0.00 0.00 35 1011.3
20260503175009 12 292 6.4 16.1 0.00 0.00 0.00 34 1011.3
20260503174533 12 105 3.2 12.9 0.00 0.00 0.00 35 1011.4
20260503174008 12 271 3.2 12.9 0.00 0.00 0.00 35 1011.4
20260503173510 12 55 6.4 14.5 0.00 0.00 0.00 36 1011.5
20260503173028 12 17 6.4 14.5 0.00 0.00 0.00 34 1011.6
20260503172511 12 265 4.8 12.9 0.00 0.00 0.00 35 1011.6
20260503172007 12 331 6.4 12.9 0.00 0.00 0.00 35 1011.7
20260503171530 12 292 3.2 17.7 0.00 0.00 0.00 35 1011.7
20260503171010 11 315 4.8 19.3 0.00 0.00 0.00 35 1011.7
20260503170508 12 209 4.8 19.3 0.00 0.00 0.00 37 1011.9
20260503151009 10 282 3.2 17.7 0.00 0.00 0.00 37 1013.6
20260503150509 10 334 6.4 17.7 0.00 0.00 0.00 36 1013.5
20260503131012 7 319 1.6 9.7 0.00 0.00 0.00 53 1014.0
20260503130509 7 352 3.2 9.7 0.00 0.00 0.00 52 1014.0
20260503110504 1 304 0.0 3.2 0.00 0.00 0.00 88 1013.5
20260503090507 2 258 0.0 3.2 0.00 0.00 0.00 77 1013.1
20260503081526 3 279 0.0 0.0 0.00 0.00 0.00 79 1013.3
20260503081006 3 279 0.0 0.0 0.00 0.00 0.00 80 1013.3
20260503080506 3 279 0.0 0.0 0.00 0.00 0.00 80 1013.3
20260503072504 3 253 0.0 1.6 0.00 0.00 0.00 80 1013.3